Temp
29 28 28 29 29 31 31 31 31 32 32 34 32 31 30 28 29 28 28 28 28 29 29 28 28 28 28 27 27 26 27 27 26 26 25 25 25 26 26 25 25 24 24 24
27 27 29 30 31 31 31 31 30 32 32 33 34 32 30 29 29 29 29 28 29 28 26 26 27 27 27 27 27 26 27 27 26 26 27 26 26 25 26 25 24 24 24 24
27 30 30 31 31 31 30 29 30 31 32 31 32 29 29 28 27 27 29 29 28 28 26 26 26 27 27 27 27 27 27 27 27 27 27 26 25 25 24 24 25 24 24 24
29 30 32 31 30 29 29 31 32 32 30 29 31 28 29 26 27 26 29 27 28 27 27 27 27 27 27 27 28 28 28 28 27 27 27 26 26 25 25 26 25 24 24 23
29 32 31 30 30 30 30 32 31 33 28 30 30 28 27 26 27 26 27 27 26 27 28 27 27 27 27 27 27 28 28 28 28 27 27 27 26 26 26 26 25 24 23 23
29 31 31 30 31 30 32 31 27 24 25 27 28 28 27 25 26 29 27 27 27 26 27 28 28 28 27 27 27 28 28 28 28 27 27 27 26 26 25 25 24 23 23 23
28 30 31 32 33 32 30 26 25 28 25 26 26 28 28 30 27 29 27 27 27 26 26 25 26 27 27 27 26 27 27 27 27 27 27 27 26 26 26 25 25 23 23 23
27 29 31 32 31 30 31 27 25 28 26 26 26 30 30 29 27 28 28 28 26 26 25 25 27 28 27 27 26 26 26 26 26 27 27 27 26 26 26 26 25 24 24 23
26 29 30 31 32 32 30 29 27 23 23 25 26 27 29 27 27 26 27 27 26 26 25 26 25 29 27 27 26 26 27 25 26 27 27 26 26 26 26 25 25 25 24 23
29 29 31 31 33 31 31 27 28 23 29 30 26 27 27 30 28 27 26 26 27 27 27 28 28 27 28 27 27 26 27 26 26 26 27 26 26 26 26 25 25 24 24 23
28 27 30 31 32 30 29 29 23 23 23 25 26 26 26 29 28 28 27 27 27 27 27 27 27 28 29 29 27 26 26 25 25 25 26 26 26 25 25 25 23 24 25 22
28 24 28 32 31 30 29 29 25 24 28 22 23 27 29 29 27 27 28 28 27 27 27 26 26 26 28 28 27 26 25 25 25 26 25 25 24 24 22 23 21 22 20 20
27 25 26 28 28 30 32 29 24 21 21 23 26 27 27 28 28 27 27 27 27 26 25 25 25 24 26 27 26 25 25 25 25 25 24 23 24 24 23 22 21 20 20 20
25 23 26 26 29 28 31 31 27 26 24 25 24 27 30 28 29 27 27 27 26 27 26 25 25 24 26 27 26 25 24 24 24 24 23 23 24 25 26 25 20 20 21 21
27 28 28 28 28 30 31 30 29 28 26 28 28 28 24 24 27 28 25 25 27 27 27 26 25 25 25 25 25 24 24 24 24 24 24 23 24 25 24 22 21 20 21 21
24 27 28 29 28 30 30 30 28 28 27 27 26 27 25 23 25 25 27 27 27 26 27 26 25 24 23 24 24 24 24 24 24 24 23 24 23 24 23 20 20 20 19 19
26 24 25 29 26 29 28 28 27 25 24 25 28 26 24 25 26 26 27 26 25 27 28 26 25 24 25 25 24 24 24 24 24 24 23 24 23 23 22 19 20 20 19 19
25 23 22 25 26 28 27 25 27 25 24 24 25 24 24 24 25 24 26 26 25 26 25 24 23 24 26 25 24 24 23 23 24 23 23 23 23 23 20 19 20 19 20 19
25 22 23 25 24 27 28 27 28 29 28 23 23 25 26 25 27 26 26 27 25 24 24 24 25 24 25 25 25 24 23 23 23 21 21 21 22 21 20 19 19 19 19 18
21 21 25 22 27 27 26 28 28 27 27 23 22 23 24 25 24 22 24 24 23 24 25 26 26 24 24 23 23 23 22 22 21 21 21 22 21 21 20 19 20 20 19 18
23 22 24 22 25 25 25 27 27 28 25 25 22 23 25 25 24 23 22 23 24 23 26 27 25 24 22 23 23 22 22 22 21 22 21 20 21 21 19 20 19 18 18 18
24 23 23 21 24 27 25 28 29 25 23 24 22 22 22 22 22 23 23 23 24 25 26 26 24 24 23 24 24 22 21 22 21 20 19 19 19 18 18 19 18 18 17 17
25 23 24 23 23 22 24 26 24 21 23 22 22 23 23 22 23 23 23 22 23 23 25 26 24 23 23 23 23 22 21 21 20 19 18 18 17 18 18 18 17 17 17 17
24 23 23 24 25 25 24 24 23 22 24 23 22 24 23 22 23 21 21 21 21 22 23 26 24 22 22 22 22 23 21 20 19 19 18 18 17 17 17 18 18 17 16 16
22 23 22 21 22 23 24 23 24 23 22 22 23 24 24 23 22 22 22 21 20 21 23 24 22 22 21 21 21 21 20 23 19 18 18 17 17 17 16 17 17 17 17 18
21 23 22 22 22 22 23 23 23 22 23 23 23 23 23 23 22 23 21 20 20 21 21 22 22 20 20 19 19 19 19 19 18 18 18 18 17 17 16 16 16 17 18 18
Height
745 766 779 767 764 765 770 777 781 764 750 744 757 759 755 755 756 764 763 755 755 756 754 759 766 772 776 780 785 788 791 794 798 802 806 808 808 810 811 812 814 816 816 817
763 777 758 750 753 763 771 778 781 763 750 750 747 754 753 751 751 753 750 757 755 755 758 758 762 768 772 775 780 785 788 792 795 799 802 805 806 808 810 812 813 815 815 815
771 759 746 753 758 768 772 781 779 774 761 757 758 770 762 753 749 745 739 745 750 751 754 757 760 762 769 772 775 779 784 789 792 796 800 803 805 806 809 810 811 812 814 815
757 744 748 755 764 767 784 753 759 764 778 796 761 809 770 762 758 748 737 747 746 748 749 751 755 760 762 765 770 775 780 784 789 793 796 799 801 804 807 808 809 810 812 813
760 746 753 763 757 754 767 743 759 756 781 777 780 796 779 765 764 751 740 747 745 740 741 746 748 752 754 761 765 768 776 780 783 787 791 795 799 802 805 806 808 810 811 813
749 734 742 747 737 744 739 753 772 784 793 812 785 793 790 778 754 737 743 740 739 738 735 739 743 751 755 760 764 767 773 777 780 783 786 791 795 799 802 805 806 808 810 813
758 748 734 730 746 742 753 783 817 812 825 821 789 794 769 740 737 732 735 736 734 733 736 740 742 745 751 755 759 763 769 773 776 780 783 787 792 796 800 803 805 808 809 812
784 783 742 727 740 755 756 774 814 821 830 817 788 789 760 733 729 723 724 725 725 726 727 729 733 739 742 749 755 760 765 770 773 777 780 785 790 794 796 800 803 805 808 811
783 772 730 725 723 731 758 776 766 807 816 817 801 773 742 738 739 736 733 729 725 721 722 722 724 731 738 743 747 754 759 766 770 772 778 782 788 791 794 798 801 804 806 810
753 773 735 727 717 729 739 753 785 803 808 809 808 795 783 746 743 738 737 732 718 717 721 718 720 725 731 737 744 752 756 759 764 767 772 779 786 792 797 799 802 804 805 808
745 763 754 733 741 752 757 765 784 791 804 820 821 800 750 741 735 733 731 721 715 719 722 720 725 722 726 733 739 743 750 757 761 765 769 778 786 796 800 802 804 806 807 808
736 766 772 748 729 728 737 751 769 802 794 811 811 792 726 728 726 722 717 714 715 713 714 716 719 722 723 727 732 737 744 750 753 761 767 779 791 799 802 806 808 810 809 811
735 769 790 773 754 736 737 747 761 778 790 803 804 787 734 726 725 722 720 713 712 709 713 714 714 720 720 725 729 734 738 743 748 759 767 778 789 795 796 802 807 810 808 809
725 767 773 793 769 753 748 739 749 761 790 792 790 769 742 740 734 726 723 714 711 705 712 712 715 714 718 720 724 729 734 743 747 757 766 775 781 783 785 784 801 806 808 806
731 759 756 755 751 743 741 746 748 757 766 772 762 761 758 750 736 732 727 725 720 715 711 709 710 711 712 715 721 727 733 741 748 754 764 770 774 777 782 786 793 801 804 806
740 761 752 759 749 742 751 749 750 752 756 756 759 759 750 743 729 731 729 727 724 719 713 713 708 709 711 714 718 724 733 739 745 751 759 768 773 776 780 787 792 797 802 806
746 762 771 770 761 753 771 758 757 762 762 761 762 754 750 746 734 733 728 725 723 717 709 708 707 706 706 707 713 720 728 735 742 748 758 764 772 776 779 783 789 795 800 802
751 764 777 780 768 790 763 746 746 756 760 755 752 751 747 743 737 736 728 726 720 715 710 709 708 705 705 710 717 723 728 734 740 747 754 761 766 771 774 780 787 793 796 800
736 761 780 785 790 772 760 751 751 749 756 755 755 745 738 733 728 729 722 726 723 721 714 707 709 711 711 707 711 718 725 732 736 743 749 754 758 764 770 776 783 788 794 799
748 750 763 787 781 791 759 737 733 741 770 747 749 748 742 736 756 749 726 724 724 732 725 709 708 714 716 715 718 720 725 727 733 739 744 750 758 764 768 773 779 785 791 797
762 765 771 785 779 770 746 734 731 768 771 736 740 742 738 743 739 738 731 730 727 719 700 705 709 714 715 717 716 720 724 731 733 733 740 748 753 758 765 772 777 782 789 795
761 770 772 779 779 774 732 733 748 742 734 731 735 737 740 738 733 728 723 718 711 708 701 704 707 708 711 713 712 717 718 722 728 735 739 744 750 756 763 770 776 782 789 795
761 755 761 761 762 740 731 732 728 730 732 734 734 731 732 733 730 727 723 716 712 707 705 706 709 707 706 708 711 711 717 717 724 730 731 741 750 754 759 767 772 781 787 793
743 739 752 750 741 736 732 729 729 730 729 729 731 730 730 730 726 726 722 717 713 708 707 706 708 711 710 706 709 709 712 722 726 730 733 738 745 751 757 764 770 778 785 791
749 744 752 754 744 738 731 729 728 729 729 730 730 729 728 728 726 723 719 716 711 708 705 705 707 706 706 705 705 708 711 714 727 734 735 742 749 753 756 762 767 776 783 788
743 745 755 757 741 739 734 726 725 727 728 728 729 727 724 724 721 716 713 711 711 709 709 706 703 706 708 709 711 714 711 715 730 734 739 737 749 753 760 762 770 779 784 791
Wind_Speed
3 5 5 8 6 5 3 3 4 4 8 1 4 4 5 8 11 13 14 18 17 16 14 25 30 30 33 32 35 34 36 34 31 29 25 20 16 13 10 14 14 10 10 9
5 4 8 4 1 2 3 3 3 5 7 2 6 9 4 9 12 16 19 14 16 12 7 14 25 28 36 38 38 36 38 36 33 29 24 19 17 12 10 14 14 7 6 7
6 5 5 4 5 4 3 4 4 10 3 6 4 8 1 3 2 9 16 14 12 14 11 11 18 28 30 34 39 41 41 37 34 29 22 15 13 9 12 16 14 10 7 7
4 4 5 0 5 7 6 7 8 6 6 9 5 6 5 4 4 8 16 10 13 10 8 12 17 23 30 36 40 42 41 38 34 30 26 23 19 17 15 15 12 9 7 7
7 3 4 6 11 6 11 4 8 6 8 2 1 3 8 1 6 12 11 5 8 11 15 15 17 29 35 34 38 41 40 36 34 33 30 27 23 19 16 14 12 10 9 10
6 2 6 9 7 7 3 4 7 6 3 1 5 5 7 5 11 11 7 8 8 9 12 13 22 24 26 27 34 37 39 37 35 34 33 30 26 21 17 15 14 13 13 13
7 5 4 4 3 2 4 6 3 4 4 6 5 4 10 4 4 3 10 8 9 9 8 8 12 18 23 27 31 34 37 37 35 35 35 32 29 24 22 19 18 17 17 16
4 6 6 4 9 8 4 8 6 5 3 6 3 4 7 2 6 7 7 8 8 10 12 15 16 21 27 29 28 31 36 34 37 36 35 33 30 25 23 21 19 20 19 18
5 6 5 5 4 9 4 1 4 8 3 2 4 7 7 7 6 7 8 6 10 11 11 14 11 22 25 26 31 34 37 32 37 38 36 34 28 24 24 20 21 19 18 20
3 2 2 5 4 5 4 8 3 4 2 2 5 5 5 3 8 9 7 9 14 7 11 10 14 21 22 27 26 28 36 42 41 40 38 36 32 25 19 18 18 19 19 21
5 4 7 2 2 6 2 1 6 5 5 5 1 6 7 5 8 9 9 14 15 8 7 6 4 17 23 22 28 33 35 34 33 37 35 33 28 22 14 13 11 12 16 20
7 5 3 5 3 4 4 7 6 5 5 2 4 6 5 5 10 9 12 10 3 10 7 8 7 13 15 20 28 30 30 32 35 34 29 26 17 16 6 7 10 8 13 15
7 1 2 9 7 2 2 2 5 6 4 4 5 5 4 2 3 7 8 9 7 9 7 6 5 7 11 15 23 27 30 31 30 30 24 21 18 18 19 8 19 14 14 13
9 4 7 6 7 3 4 1 5 6 4 5 5 7 6 9 4 7 8 10 10 9 7 7 6 6 8 20 26 27 26 24 26 28 26 27 27 29 21 25 24 19 18 15
4 4 3 4 5 2 3 2 6 5 5 4 4 3 7 9 5 5 6 8 12 10 4 6 6 5 6 15 20 22 23 26 28 29 29 31 31 34 21 20 27 27 24 12
3 1 2 2 6 8 5 5 8 5 3 4 4 3 3 9 6 9 7 6 10 11 9 6 8 7 8 17 20 21 24 28 30 31 30 30 34 35 26 27 29 30 23 21
3 4 3 1 4 2 4 4 1 3 3 1 2 5 2 5 6 6 7 9 8 12 14 9 10 9 14 21 24 26 28 31 31 30 30 31 33 31 28 26 30 28 25 23
4 4 2 2 3 2 6 3 3 9 3 1 1 5 5 5 3 5 3 1 9 15 8 8 6 11 19 21 23 24 27 29 30 29 31 32 32 32 28 27 32 29 25 27
4 4 3 4 2 1 2 4 4 1 4 3 3 6 4 7 2 4 4 1 8 8 10 2 9 8 13 25 29 28 28 31 31 31 34 35 35 34 31 32 33 28 29 29
6 5 4 3 4 6 7 3 2 2 4 8 7 7 5 5 4 5 7 10 14 23 11 8 5 2 8 13 21 23 23 28 27 31 34 35 33 32 36 39 34 32 31 30
3 3 6 3 3 6 5 4 2 4 7 5 6 5 3 3 4 5 7 7 14 35 5 6 3 7 9 16 22 21 22 20 27 35 35 35 34 36 38 38 34 32 31 28
4 4 3 3 3 3 6 1 6 6 2 2 4 5 5 7 9 7 9 9 9 9 10 6 14 17 20 25 29 22 22 25 30 31 32 36 34 35 36 35 32 31 30 28
1 5 3 6 5 3 2 1 2 3 4 4 2 4 3 5 6 8 9 10 10 8 11 10 13 15 24 27 23 21 21 30 32 30 32 30 31 35 36 35 33 31 30 29
3 1 2 2 2 2 3 3 2 4 3 2 3 3 2 6 8 8 9 8 7 2 5 10 13 13 13 18 25 25 24 23 26 27 30 32 32 30 33 33 33 32 30 28
4 4 1 2 4 4 6 6 2 4 5 6 6 4 6 5 9 8 6 8 7 7 6 4 8 12 13 18 20 20 25 22 25 22 25 24 26 26 28 30 32 33 30 30
2 3 3 4 4 3 5 5 3 6 5 6 6 6 7 7 8 5 7 8 6 6 9 6 6 7 6 10 14 18 24 23 23 20 21 25 22 24 26 30 27 25 22 21
Wind_Direction
10 97 181 211 181 175 188 223 256 264 268 211 154 241 212 189 188 202 209 206 197 204 207 182 188 186 193 196 199 198 196 198 198 199 207 208 205 213 221 214 210 231 242 225
26 190 216 235 221 202 159 253 273 282 275 357 283 271 168 181 210 201 210 209 204 202 174 176 180 179 187 191 195 196 199 197 198 204 207 208 208 210 221 214 216 227 218 219
161 224 181 168 290 307 232 203 182 226 209 317 328 313 174 266 198 195 215 212 200 201 184 178 178 182 184 189 194 197 200 202 203 205 205 205 211 216 214 227 244 252 229 216
240 230 190 159 250 154 275 190 205 260 143 227 141 266 290 272 259 244 219 189 194 191 188 178 183 186 188 195 198 200 203 204 206 205 206 207 211 210 224 234 238 213 195 200
243 178 176 199 234 139 240 285 208 245 171 60 14 74 273 258 260 246 222 172 195 191 184 183 188 190 195 194 195 200 203 204 205 205 209 210 217 222 231 228 212 197 188 188
244 282 156 216 247 179 274 102 37 43 80 50 247 136 271 197 218 236 121 179 182 186 192 196 191 191 195 195 196 197 204 207 208 206 208 211 214 212 213 210 199 187 185 183
325 265 246 174 208 17 91 61 350 5 12 232 242 185 242 301 221 185 179 165 191 202 197 197 186 187 188 193 192 196 203 207 209 208 208 211 217 217 220 221 204 188 187 191
163 321 183 179 183 185 167 152 158 175 182 264 288 242 261 33 148 124 128 166 203 199 193 201 202 195 190 192 190 193 204 207 210 209 212 214 219 222 224 222 209 201 201 195
154 270 297 220 163 138 169 167 193 109 39 51 273 294 329 79 107 117 165 188 220 219 189 199 182 190 194 192 188 194 205 208 211 211 213 214 211 218 217 213 204 206 206 195
190 335 279 328 111 53 140 150 71 13 156 250 298 288 243 206 183 169 190 207 234 210 218 216 191 185 184 196 193 195 204 210 212 212 213 217 222 219 219 224 222 216 211 199
146 112 285 14 107 189 56 72 55 115 128 161 194 270 221 232 208 213 198 216 223 224 213 276 143 157 190 198 193 199 204 204 206 212 210 216 221 212 219 239 228 245 236 202
200 155 245 236 259 240 181 171 133 124 236 126 145 270 225 223 211 210 233 220 160 219 221 224 179 163 190 187 186 194 198 202 206 211 204 204 196 201 167 18 322 277 243 189
181 17 27 348 356 350 98 169 114 111 88 188 136 257 1 106 264 254 255 255 253 218 187 208 244 178 177 195 184 191 196 198 195 200 188 175 172 150 131 231 255 247 182 189
97 104 146 160 219 240 346 345 144 123 114 172 226 286 40 344 292 260 257 269 254 284 184 199 201 202 186 188 184 188 192 191 184 187 172 173 164 158 160 180 218 202 159 123
88 125 152 218 247 241 24 70 64 72 135 118 273 256 347 302 280 282 290 331 317 297 237 217 223 224 164 173 181 186 182 184 182 175 180 181 175 177 183 181 193 192 186 199
27 174 183 37 357 86 81 35 79 59 65 73 88 30 51 296 50 41 24 314 282 286 285 268 252 199 182 182 182 180 178 179 182 174 177 186 176 177 183 179 180 184 179 175
73 117 70 297 323 72 22 345 133 124 44 218 156 221 3 310 42 55 4 358 337 297 290 276 209 204 199 189 183 183 178 175 175 171 177 183 183 185 186 186 183 182 186 176
115 97 91 183 15 77 253 331 186 125 164 244 51 275 254 245 211 233 273 248 8 343 319 324 283 195 189 182 182 179 175 168 168 164 175 179 182 186 186 184 183 181 181 174
128 118 83 126 156 280 342 251 213 187 200 200 300 311 305 331 107 341 305 355 29 344 307 356 350 277 190 175 179 177 163 167 164 166 173 174 180 182 178 177 176 182 175 177
72 81 120 134 143 193 228 210 79 127 302 185 182 245 290 352 67 280 338 359 3 327 306 352 51 316 191 170 168 160 160 160 164 171 176 182 178 177 178 176 179 177 179 179
13 14 151 152 193 286 245 220 134 127 237 185 187 222 298 330 211 167 260 241 208 216 83 15 127 137 165 168 169 161 165 176 175 179 183 179 180 180 180 179 179 176 176 172
187 155 190 87 95 255 187 133 158 215 249 235 185 202 238 258 294 296 307 295 308 311 348 292 181 178 183 189 179 166 171 178 181 178 169 172 178 173 175 178 173 174 173 170
287 189 197 170 213 255 279 221 3 165 175 210 226 260 266 294 283 285 292 306 319 301 303 301 243 204 197 195 188 172 182 181 177 173 159 160 164 172 175 174 169 171 175 174
320 84 119 86 269 321 325 278 209 205 238 203 244 297 274 280 289 289 288 301 290 333 274 272 261 239 223 200 199 195 176 172 161 162 158 160 162 162 169 174 173 175 177 180
222 10 72 297 286 316 285 251 239 245 265 289 300 286 271 263 282 263 268 268 266 282 291 293 238 231 229 217 204 187 181 183 179 157 149 149 161 160 160 169 175 183 188 190
198 185 143 231 234 187 254 284 221 235 244 238 239 274 254 229 274 291 271 258 282 291 344 293 232 169 192 179 157 154 137 138 138 148 154 152 163 156 167 168 172 188 192 195